,,,PA_Meas_PMT16A,,PR_Meas_QMR101_102,,RH_Meas_QMH101,,SR_Meas_QMS101,,TA_Meas_QMH101,,GenWind,,GenWind,
date,time,status,PA,status,PR,status,RH,status,SR,status,TA,status,DirAvg,status,SpdAvg,
2012-05-11, 00:00:04,VALID,1010.59,VALID,0,VALID,104,VALID,0,VALID,23.5948,VALID,60,VALID,0,
2012-05-11, 00:01:04,VALID,1010.61,VALID,0,VALID,104,VALID,0.112112,VALID,23.5948,VALID,60,VALID,0,
2012-05-11, 00:02:04,VALID,1010.58,VALID,0,VALID,104,VALID,0,VALID,23.6161,VALID,60,VALID,0,
2012-05-11, 00:03:04,VALID,1010.59,VALID,0,VALID,104,VALID,0.112112,VALID,23.5966,VALID,60,VALID,0,
2012-05-11, 00:04:04,VALID,1010.62,VALID,0,VALID,104,VALID,0,VALID,23.5753,VALID,60,VALID,0,
2012-05-11, 00:05:04,VALID,1010.64,VALID,0,VALID,104,VALID,0,VALID,23.5753,VALID,60,VALID,0,
2012-05-11, 00:06:04,VALID,1010.61,VALID,0,VALID,104,VALID,0.112112,VALID,23.5558,VALID,60,VALID,0,
2012-05-11, 00:07:04,VALID,1010.61,VALID,0,VALID,104,VALID,0,VALID,23.5558,VALID,60,VALID,0,
2012-05-11, 00:08:04,VALID,1010.62,VALID,0,VALID,104,VALID,0,VALID,23.5771,VALID,60,VALID,0,
2012-05-11, 00:09:04,VALID,1010.61,VALID,0,VALID,104,VALID,0.112112,VALID,23.5558,VALID,60,VALID,0,
2012-05-11, 00:10:04,VALID,1010.61,VALID,0,VALID,104,VALID,0.112112,VALID,23.5363,VALID,60,VALID,0,
2012-05-11, 00:11:04,VALID,1010.62,VALID,0,VALID,104,VALID,0.112112,VALID,23.5558,VALID,60,VALID,0,
2012-05-11, 00:12:04,VALID,1010.62,VALID,0,VALID,104,VALID,0.112112,VALID,23.5753,VALID,60,VALID,0,
2012-05-11, 00:13:04,VALID,1010.63,VALID,0,VALID,104,VALID,0.112112,VALID,23.5363,VALID,60,VALID,0,
2012-05-11, 00:14:04,VALID,1010.64,VALID,0,VALID,104,VALID,0.112112,VALID,23.5576,VALID,60,VALID,0,
2012-05-11, 00:15:04,VALID,1010.66,VALID,0,VALID,104,VALID,0.112112,VALID,23.5169,VALID,60,VALID,0,
2012-05-11, 00:16:04,VALID,1010.68,VALID,0,VALID,104,VALID,0.112112,VALID,23.5381,VALID,60,VALID,0,
2012-05-11, 00:17:04,VALID,1010.65,VALID,0,VALID,104,VALID,0,VALID,23.5186,VALID,60,VALID,0,
2012-05-11, 00:18:04,VALID,1010.62,VALID,0,VALID,104,VALID,0,VALID,23.4974,VALID,60,VALID,0,
2012-05-11, 00:19:04,VALID,1010.63,VALID,0,VALID,104,VALID,0,VALID,23.5186,VALID,60,VALID,0,
2012-05-11, 00:20:04,VALID,1010.61,VALID,0,VALID,104,VALID,0,VALID,23.5363,VALID,60,VALID,0,
2012-05-11, 00:21:04,VALID,1010.59,VALID,0,VALID,104,VALID,0.112112,VALID,23.5381,VALID,60,VALID,0,
2012-05-11, 00:22:04,VALID,1010.57,VALID,0,VALID,104,VALID,0.112112,VALID,23.4974,VALID,60,VALID,0.159375,
2012-05-11, 00:23:04,VALID,1010.56,VALID,0,VALID,104,VALID,0,VALID,23.4974,VALID,60,VALID,0.13125,
2012-05-11, 00:24:04,VALID,1010.54,VALID,0,VALID,104,VALID,0,VALID,23.4974,VALID,60,VALID,0.270703,
2012-05-11, 00:25:04,VALID,1010.51,VALID,0,VALID,104,VALID,0,VALID,23.4779,VALID,60,VALID,0.160156,
2012-05-11, 00:26:04,VALID,1010.49,VALID,0,VALID,104,VALID,0.112112,VALID,23.4797,VALID,60,VALID,0,
2012-05-11, 00:27:04,VALID,1010.47,VALID,0,VALID,104,VALID,0,VALID,23.4602,VALID,60,VALID,0,
2012-05-11, 00:28:04,VALID,1010.45,VALID,0,VALID,104,VALID,0.112112,VALID,23.4389,VALID,60,VALID,0,
2012-05-11, 00:29:04,VALID,1010.48,VALID,0,VALID,104,VALID,0,VALID,23.4389,VALID,60,VALID,0,
2012-05-11, 00:30:04,VALID,1010.47,VALID,0,VALID,104,VALID,0.112112,VALID,23.4389,VALID,60,VALID,0,
2012-05-11, 00:31:04,VALID,1010.49,VALID,0,VALID,104,VALID,0,VALID,23.4389,VALID,60,VALID,0,
2012-05-11, 00:32:04,VALID,1010.47,VALID,0,VALID,104,VALID,0,VALID,23.4389,VALID,60,VALID,0,
2012-05-11, 00:33:04,VALID,1010.43,VALID,0,VALID,104,VALID,0.112112,VALID,23.4194,VALID,60,VALID,0.473828,
2012-05-11, 00:34:04,VALID,1010.44,VALID,0,VALID,104,VALID,0.112112,VALID,23.4407,VALID,60,VALID,0.409766,
2012-05-11, 00:35:04,VALID,1010.41,VALID,0,VALID,104,VALID,0,VALID,23.4194,VALID,60,VALID,0.231641,
2012-05-11, 00:36:04,VALID,1010.39,VALID,0,VALID,104,VALID,0,VALID,23.3805,VALID,60,VALID,0,
2012-05-11, 00:37:04,VALID,1010.36,VALID,0,VALID,104,VALID,0,VALID,23.3433,VALID,60,VALID,0,
2012-05-11, 00:38:04,VALID,1010.35,VALID,0,VALID,104,VALID,0,VALID,23.3026,VALID,60,VALID,0,
2012-05-11, 00:39:04,VALID,1010.28,VALID,0,VALID,104,VALID,0.112112,VALID,23.2848,VALID,60,VALID,0.0894531,
2012-05-11, 00:40:04,VALID,1010.27,VALID,0,VALID,104,VALID,0,VALID,23.2848,VALID,60,VALID,0.163281,
2012-05-11, 00:41:04,VALID,1010.22,VALID,0,VALID,104,VALID,0,VALID,23.2636,VALID,60,VALID,0.167578,
2012-05-11, 00:42:04,VALID,1010.2,VALID,0,VALID,104,VALID,0.112112,VALID,23.2848,VALID,60,VALID,0,
2012-05-11, 00:43:04,VALID,1010.17,VALID,0,VALID,104,VALID,0,VALID,23.2654,VALID,60,VALID,0,
2012-05-11, 00:44:04,VALID,1010.16,VALID,0,VALID,104,VALID,0,VALID,23.2459,VALID,60,VALID,0,
2012-05-11, 00:45:04,VALID,1010.16,VALID,0,VALID,104,VALID,0,VALID,23.2459,VALID,60,VALID,0,
2012-05-11, 00:46:04,VALID,1010.12,VALID,0,VALID,104,VALID,0,VALID,23.2246,VALID,60,VALID,0,
2012-05-11, 00:47:04,VALID,1010.1,VALID,0,VALID,104,VALID,0,VALID,23.2654,VALID,60,VALID,0,
2012-05-11, 00:48:04,VALID,1010.09,VALID,0,VALID,104,VALID,0,VALID,23.2654,VALID,60,VALID,0,
2012-05-11, 00:49:04,VALID,1010.06,VALID,0,VALID,104,VALID,0,VALID,23.2654,VALID,60,VALID,0,
2012-05-11, 00:50:04,VALID,1010.03,VALID,0,VALID,104,VALID,0,VALID,23.2051,VALID,60,VALID,0,
2012-05-11, 00:51:04,VALID,1010.01,VALID,0,VALID,104,VALID,0.112112,VALID,23.2069,VALID,60,VALID,0,
2012-05-11, 00:52:04,VALID,1009.97,VALID,0,VALID,104,VALID,0.112112,VALID,23.2264,VALID,60,VALID,0,
2012-05-11, 00:53:04,VALID,1009.96,VALID,0,VALID,104,VALID,0.112112,VALID,23.2051,VALID,60,VALID,0,
2012-05-11, 00:54:04,VALID,1009.95,VALID,0,VALID,104,VALID,0.112112,VALID,23.2246,VALID,60,VALID,0,
2012-05-11, 00:55:04,VALID,1009.9,VALID,0,VALID,104,VALID,0,VALID,23.2246,VALID,60,VALID,0,
2012-05-11, 00:56:04,VALID,1009.9,VALID,0,VALID,104,VALID,0.112112,VALID,23.2441,VALID,60,VALID,0.0175781,
2012-05-11, 00:57:04,VALID,1009.9,VALID,0,VALID,104,VALID,0.112112,VALID,23.2654,VALID,60,VALID,0.192969,
2012-05-11, 00:58:04,VALID,1009.89,VALID,0,VALID,104,VALID,0,VALID,23.2441,VALID,60,VALID,0.0914062,
2012-05-11, 00:59:04,VALID,1009.88,VALID,0,VALID,104,VALID,0,VALID,23.2866,VALID,60,VALID,0.172266,
2012-05-11, 01:00:04,VALID,1009.85,VALID,0,VALID,104,VALID,0,VALID,23.3043,VALID,60,VALID,0.0375,
2012-05-11, 01:01:04,VALID,1009.85,VALID,0,VALID,104,VALID,0.112112,VALID,23.2654,VALID,60,VALID,0,
2012-05-11, 01:02:04,VALID,1009.87,VALID,0,VALID,104,VALID,0,VALID,23.2459,VALID,60,VALID,0,
2012-05-11, 01:03:04,VALID,1009.89,VALID,0,VALID,104,VALID,0.112112,VALID,23.2441,VALID,60,VALID,0,
2012-05-11, 01:04:04,VALID,1009.9,VALID,0,VALID,104,VALID,0,VALID,23.2441,VALID,60,VALID,0,
2012-05-11, 01:05:04,VALID,1009.9,VALID,0,VALID,104,VALID,0,VALID,23.2459,VALID,60,VALID,0,
2012-05-11, 01:06:04,VALID,1009.93,VALID,0,VALID,104,VALID,0.112112,VALID,23.2441,VALID,60,VALID,0,
2012-05-11, 01:07:04,VALID,1009.9,VALID,0,VALID,104,VALID,0,VALID,23.2441,VALID,60,VALID,0,
2012-05-11, 01:08:04,VALID,1009.9,VALID,0,VALID,104,VALID,0,VALID,23.2654,VALID,60,VALID,0,
2012-05-11, 01:09:04,VALID,1009.86,VALID,0,VALID,104,VALID,0,VALID,23.2441,VALID,60,VALID,0,
2012-05-11, 01:10:04,VALID,1009.87,VALID,0,VALID,104,VALID,0.112112,VALID,23.2441,VALID,60,VALID,0,
2012-05-11, 01:11:04,VALID,1009.88,VALID,0,VALID,104,VALID,0,VALID,23.2246,VALID,60,VALID,0,
2012-05-11, 01:12:04,VALID,1009.88,VALID,0,VALID,104,VALID,0.112112,VALID,23.2459,VALID,60,VALID,0,
2012-05-11, 01:13:04,VALID,1009.87,VALID,0,VALID,104,VALID,0.112112,VALID,23.2441,VALID,60,VALID,0,
2012-05-11, 01:14:04,VALID,1009.86,VALID,0,VALID,104,VALID,0.112112,VALID,23.2441,VALID,60,VALID,0,
2012-05-11, 01:15:04,VALID,1009.86,VALID,0,VALID,104,VALID,0.112112,VALID,23.2246,VALID,60,VALID,0,
2012-05-11, 01:16:04,VALID,1009.81,VALID,0,VALID,104,VALID,0.112112,VALID,23.2441,VALID,60,VALID,0,
2012-05-11, 01:17:04,VALID,1009.79,VALID,0,VALID,104,VALID,0.112112,VALID,23.2441,VALID,60,VALID,0,
2012-05-11, 01:18:04,VALID,1009.77,VALID,0,VALID,104,VALID,0.112112,VALID,23.2441,VALID,60,VALID,0,
2012-05-11, 01:19:04,VALID,1009.77,VALID,0,VALID,104,VALID,0.112112,VALID,23.2441,VALID,60,VALID,0,
2012-05-11, 01:20:04,VALID,1009.75,VALID,0,VALID,104,VALID,0.112112,VALID,23.2051,VALID,60,VALID,0,
2012-05-11, 01:21:04,VALID,1009.76,VALID,0,VALID,104,VALID,0.112112,VALID,23.2051,VALID,60,VALID,0,
2012-05-11, 01:22:04,VALID,1009.74,VALID,0,VALID,104,VALID,0,VALID,23.1662,VALID,60,VALID,0,
2012-05-11, 01:23:04,VALID,1009.77,VALID,0,VALID,104,VALID,0,VALID,23.1892,VALID,60,VALID,0,
2012-05-11, 01:24:04,VALID,1009.76,VALID,0,VALID,104,VALID,0,VALID,23.1697,VALID,60,VALID,0,
2012-05-11, 01:25:04,VALID,1009.77,VALID,0,VALID,104,VALID,0,VALID,23.1095,VALID,60,VALID,0,
2012-05-11, 01:26:04,VALID,1009.74,VALID,0,VALID,104,VALID,0,VALID,23.1697,VALID,60,VALID,0,
2012-05-11, 01:27:04,VALID,1009.72,VALID,0,VALID,104,VALID,0,VALID,23.129,VALID,60,VALID,0,
2012-05-11, 01:28:04,VALID,1009.73,VALID,0,VALID,104,VALID,0,VALID,23.1679,VALID,60,VALID,0,
2012-05-11, 01:29:04,VALID,1009.7,VALID,0,VALID,104,VALID,0,VALID,23.2264,VALID,60,VALID,0,
2012-05-11, 01:30:04,VALID,1009.7,VALID,0,VALID,104,VALID,0,VALID,23.2654,VALID,60,VALID,0,
2012-05-11, 01:31:04,VALID,1009.68,VALID,0,VALID,104,VALID,0,VALID,23.2866,VALID,60,VALID,0,
2012-05-11, 01:32:04,VALID,1009.66,VALID,0,VALID,104,VALID,0,VALID,23.2848,VALID,60,VALID,0.24375,
2012-05-11, 01:33:04,VALID,1009.64,VALID,0,VALID,104,VALID,0,VALID,23.3043,VALID,60,VALID,0.389453,
2012-05-11, 01:34:04,VALID,1009.6,VALID,0,VALID,104,VALID,0,VALID,23.3256,VALID,60,VALID,0.187891,
2012-05-11, 01:35:04,VALID,1009.58,VALID,0,VALID,104,VALID,0,VALID,23.3238,VALID,60,VALID,0.04375,
2012-05-11, 01:36:04,VALID,1009.54,VALID,0,VALID,104,VALID,0,VALID,23.3238,VALID,60,VALID,0.00117188,
2012-05-11, 01:37:04,VALID,1009.49,VALID,0,VALID,104,VALID,0,VALID,23.3433,VALID,60,VALID,0.145313,
2012-05-11, 01:38:04,VALID,1009.51,VALID,0,VALID,104,VALID,0,VALID,23.3415,VALID,60,VALID,0.167969,
2012-05-11, 01:39:04,VALID,1009.48,VALID,0,VALID,104,VALID,0,VALID,23.3238,VALID,60,VALID,0.338281,
2012-05-11, 01:40:04,VALID,1009.48,VALID,0,VALID,104,VALID,0.112112,VALID,23.3043,VALID,60,VALID,0.402734,
2012-05-11, 01:41:04,VALID,1009.52,VALID,0,VALID,104,VALID,0,VALID,23.2831,VALID,60,VALID,0.557422,
2012-05-11, 01:42:04,VALID,1009.56,VALID,0,VALID,104,VALID,0,VALID,23.3026,VALID,60,VALID,0.557422,
2012-05-11, 01:43:04,VALID,1009.56,VALID,0,VALID,104,VALID,0,VALID,23.3433,VALID,60,VALID,0.570313,
2012-05-11, 01:44:04,VALID,1009.56,VALID,0,VALID,104,VALID,0.112112,VALID,23.3628,VALID,62,VALID,0.615625,
2012-05-11, 01:45:04,VALID,1009.56,VALID,0,VALID,104,VALID,0,VALID,23.3823,VALID,62,VALID,0.420312,
2012-05-11, 01:46:04,VALID,1009.58,VALID,0,VALID,104,VALID,0,VALID,23.4017,VALID,62,VALID,0.662891,
2012-05-11, 01:47:04,VALID,1009.57,VALID,0,VALID,104,VALID,0,VALID,23.4017,VALID,62,VALID,0.446094,
2012-05-11, 01:48:04,VALID,1009.58,VALID,0,VALID,104,VALID,0,VALID,23.4212,VALID,73,VALID,0.738672,
2012-05-11, 01:49:04,VALID,1009.61,VALID,0,VALID,104,VALID,0,VALID,23.4212,VALID,74,VALID,0.596094,
2012-05-11, 01:50:04,VALID,1009.63,VALID,0,VALID,104,VALID,0.112112,VALID,23.4,VALID,74,VALID,0.195313,
2012-05-11, 01:51:04,VALID,1009.65,VALID,0,VALID,104,VALID,0,VALID,23.3805,VALID,74,VALID,0,
2012-05-11, 01:52:04,VALID,1009.65,VALID,0,VALID,104,VALID,0.112112,VALID,23.4017,VALID,74,VALID,0,
2012-05-11, 01:53:04,VALID,1009.64,VALID,0,VALID,104,VALID,0.112112,VALID,23.4017,VALID,74,VALID,0.249609,
2012-05-11, 01:54:04,VALID,1009.64,VALID,0,VALID,104,VALID,0.112112,VALID,23.4017,VALID,74,VALID,0.0679687,
2012-05-11, 01:55:04,VALID,1009.64,VALID,0,VALID,104,VALID,0,VALID,23.4017,VALID,74,VALID,0,
2012-05-11, 01:56:04,VALID,1009.63,VALID,0,VALID,104,VALID,0,VALID,23.361,VALID,74,VALID,0,
2012-05-11, 01:57:04,VALID,1009.6,VALID,0,VALID,104,VALID,0,VALID,23.3823,VALID,74,VALID,0,
2012-05-11, 01:58:04,VALID,1009.61,VALID,0,VALID,104,VALID,0.112112,VALID,23.3823,VALID,74,VALID,0,
2012-05-11, 01:59:04,VALID,1009.64,VALID,0,VALID,104,VALID,0.112112,VALID,23.3823,VALID,74,VALID,0,
2012-05-11, 02:00:04,VALID,1009.62,VALID,0,VALID,104,VALID,0.112112,VALID,23.3628,VALID,74,VALID,0,
2012-05-11, 02:01:04,VALID,1009.61,VALID,0,VALID,104,VALID,0,VALID,23.3415,VALID,74,VALID,0.0175781,
2012-05-11, 02:02:04,VALID,1009.63,VALID,0,VALID,104,VALID,0,VALID,23.3433,VALID,74,VALID,0.0675781,
2012-05-11, 02:03:04,VALID,1009.63,VALID,0,VALID,104,VALID,0.112112,VALID,23.322,VALID,74,VALID,0.153125,
2012-05-11, 02:04:04,VALID,1009.58,VALID,0,VALID,104,VALID,0.112112,VALID,23.322,VALID,74,VALID,0.245703,
2012-05-11, 02:05:04,VALID,1009.56,VALID,0,VALID,104,VALID,0.112112,VALID,23.2831,VALID,102,VALID,0.658984,
2012-05-11, 02:06:04,VALID,1009.59,VALID,0,VALID,104,VALID,0.112112,VALID,23.3043,VALID,140,VALID,0.799609,
2012-05-11, 02:07:04,VALID,1009.58,VALID,0,VALID,104,VALID,0,VALID,23.2636,VALID,140,VALID,0.773438,
2012-05-11, 02:08:04,VALID,1009.53,VALID,0,VALID,104,VALID,0.112112,VALID,23.2831,VALID,140,VALID,0.796875,
2012-05-11, 02:09:04,VALID,1009.51,VALID,0,VALID,104,VALID,0,VALID,23.2831,VALID,140,VALID,0.516406,
2012-05-11, 02:10:04,VALID,1009.45,VALID,0,VALID,104,VALID,0,VALID,23.3043,VALID,111,VALID,0.673437,
2012-05-11, 02:11:04,VALID,1009.44,VALID,0,VALID,104,VALID,0,VALID,23.3433,VALID,103,VALID,0.733594,
2012-05-11, 02:12:04,VALID,1009.41,VALID,0,VALID,104,VALID,0,VALID,23.322,VALID,103,VALID,0.325,
2012-05-11, 02:13:04,VALID,1009.4,VALID,0,VALID,104,VALID,0,VALID,23.3433,VALID,88,VALID,0.622266,
2012-05-11, 02:14:04,VALID,1009.38,VALID,0,VALID,104,VALID,0.112112,VALID,23.3415,VALID,80,VALID,0.497266,
2012-05-11, 02:15:04,VALID,1009.36,VALID,0,VALID,104,VALID,0.112112,VALID,23.3415,VALID,80,VALID,0.0839844,
2012-05-11, 02:16:04,VALID,1009.34,VALID,0,VALID,104,VALID,0.112112,VALID,23.3415,VALID,79,VALID,0.683594,
2012-05-11, 02:17:04,VALID,1009.33,VALID,0,VALID,104,VALID,0,VALID,23.3823,VALID,95,VALID,0.853906,
2012-05-11, 02:18:04,VALID,1009.31,VALID,0,VALID,104,VALID,0.112112,VALID,23.4017,VALID,105,VALID,0.826172,
2012-05-11, 02:19:04,VALID,1009.31,VALID,0,VALID,104,VALID,0.112112,VALID,23.4017,VALID,107,VALID,0.461328,
2012-05-11, 02:20:04,VALID,1009.28,VALID,0,VALID,104,VALID,0,VALID,23.3823,VALID,107,VALID,0.462891,
2012-05-11, 02:21:04,VALID,1009.25,VALID,0,VALID,104,VALID,0.112112,VALID,23.3805,VALID,92,VALID,0.303516,
2012-05-11, 02:22:04,VALID,1009.26,VALID,0,VALID,104,VALID,0,VALID,23.361,VALID,92,VALID,0.453516,
2012-05-11, 02:23:04,VALID,1009.21,VALID,0,VALID,104,VALID,0,VALID,23.384,VALID,91,VALID,0.177344,
2012-05-11, 02:24:04,VALID,1009.22,VALID,0,VALID,104,VALID,0,VALID,23.3628,VALID,83,VALID,0.337891,
2012-05-11, 02:25:04,VALID,1009.22,VALID,0,VALID,104,VALID,0,VALID,23.3433,VALID,40,VALID,0.454297,
2012-05-11, 02:26:04,VALID,1009.22,VALID,0,VALID,104,VALID,0,VALID,23.3238,VALID,40,VALID,0.491797,
2012-05-11, 02:27:04,VALID,1009.22,VALID,0,VALID,104,VALID,0,VALID,23.3256,VALID,39,VALID,0.45,
2012-05-11, 02:28:04,VALID,1009.19,VALID,0,VALID,104,VALID,0,VALID,23.2848,VALID,39,VALID,0.0375,
2012-05-11, 02:29:04,VALID,1009.16,VALID,0,VALID,104,VALID,0,VALID,23.2654,VALID,39,VALID,0.211328,
2012-05-11, 02:30:04,VALID,1009.16,VALID,0,VALID,104,VALID,0,VALID,23.2848,VALID,39,VALID,0.276172,
2012-05-11, 02:31:04,VALID,1009.17,VALID,0,VALID,104,VALID,0,VALID,23.2671,VALID,39,VALID,0.330859,
2012-05-11, 02:32:04,VALID,1009.17,VALID,0,VALID,104,VALID,0,VALID,23.2459,VALID,39,VALID,0.00078125,
2012-05-11, 02:33:04,VALID,1009.16,VALID,0,VALID,104,VALID,0,VALID,23.2476,VALID,39,VALID,0,
2012-05-11, 02:34:04,VALID,1009.15,VALID,0,VALID,104,VALID,0,VALID,23.2282,VALID,39,VALID,0,
2012-05-11, 02:35:04,VALID,1009.11,VALID,0,VALID,104,VALID,0,VALID,23.1874,VALID,39,VALID,0,
2012-05-11, 02:36:04,VALID,1009.09,VALID,0,VALID,104,VALID,0,VALID,23.1892,VALID,39,VALID,0.330078,
2012-05-11, 02:37:04,VALID,1009.08,VALID,0,VALID,104,VALID,0,VALID,23.1892,VALID,39,VALID,0.228906,
2012-05-11, 02:38:04,VALID,1009.05,VALID,0,VALID,104,VALID,0,VALID,23.1874,VALID,39,VALID,0,
2012-05-11, 02:39:04,VALID,1009.05,VALID,0,VALID,104,VALID,0,VALID,23.1679,VALID,39,VALID,0,
2012-05-11, 02:40:04,VALID,1009.05,VALID,0,VALID,104,VALID,0.112112,VALID,23.1077,VALID,39,VALID,0,
2012-05-11, 02:41:04,VALID,1009.09,VALID,0,VALID,104,VALID,0,VALID,23.1095,VALID,39,VALID,0,
2012-05-11, 02:42:04,VALID,1009.11,VALID,0,VALID,104,VALID,0.112112,VALID,23.0883,VALID,39,VALID,0,
2012-05-11, 02:43:04,VALID,1009.16,VALID,0,VALID,104,VALID,0,VALID,23.09,VALID,39,VALID,0,
2012-05-11, 02:44:04,VALID,1009.19,VALID,0,VALID,104,VALID,0.112112,VALID,23.0688,VALID,39,VALID,0,
2012-05-11, 02:45:04,VALID,1009.22,VALID,0,VALID,104,VALID,0.112112,VALID,23.0688,VALID,39,VALID,0,
2012-05-11, 02:46:04,VALID,1009.23,VALID,0,VALID,104,VALID,0,VALID,23.1095,VALID,39,VALID,0.171094,
2012-05-11, 02:47:04,VALID,1009.25,VALID,0,VALID,104,VALID,0,VALID,23.129,VALID,39,VALID,0,
2012-05-11, 02:48:04,VALID,1009.25,VALID,0,VALID,104,VALID,0,VALID,23.1095,VALID,39,VALID,0,
2012-05-11, 02:49:04,VALID,1009.27,VALID,0,VALID,104,VALID,0,VALID,23.1095,VALID,39,VALID,0,
2012-05-11, 02:50:04,VALID,1009.24,VALID,0,VALID,104,VALID,0,VALID,23.1095,VALID,39,VALID,0,
2012-05-11, 02:51:04,VALID,1009.27,VALID,0,VALID,104,VALID,0,VALID,23.1095,VALID,39,VALID,0.308203,
2012-05-11, 02:52:04,VALID,1009.27,VALID,0,VALID,104,VALID,0,VALID,23.1095,VALID,39,VALID,0.562109,
2012-05-11, 02:53:04,VALID,1009.3,VALID,0,VALID,104,VALID,0.112112,VALID,23.129,VALID,122,VALID,0.576563,
2012-05-11, 02:54:04,VALID,1009.34,VALID,0,VALID,104,VALID,0,VALID,23.1095,VALID,122,VALID,0.342969,
2012-05-11, 02:55:04,VALID,1009.36,VALID,0,VALID,104,VALID,0.112112,VALID,23.1485,VALID,122,VALID,0.235547,
2012-05-11, 02:56:04,VALID,1009.4,VALID,0,VALID,104,VALID,0.112112,VALID,23.1485,VALID,122,VALID,0.282813,
2012-05-11, 02:57:04,VALID,1009.4,VALID,0,VALID,104,VALID,0.112112,VALID,23.1485,VALID,122,VALID,0.174219,
2012-05-11, 02:58:04,VALID,1009.42,VALID,0,VALID,104,VALID,0,VALID,23.1467,VALID,122,VALID,0,
2012-05-11, 02:59:04,VALID,1009.42,VALID,0,VALID,104,VALID,0,VALID,23.1874,VALID,122,VALID,0,
2012-05-11, 03:00:04,VALID,1009.42,VALID,0,VALID,104,VALID,0.112112,VALID,23.1874,VALID,122,VALID,0,
2012-05-11, 03:01:04,VALID,1009.43,VALID,0,VALID,104,VALID,0,VALID,23.2087,VALID,122,VALID,0,
2012-05-11, 03:02:04,VALID,1009.45,VALID,0,VALID,104,VALID,0.112112,VALID,23.1874,VALID,122,VALID,0,
2012-05-11, 03:03:04,VALID,1009.45,VALID,0,VALID,104,VALID,0.112112,VALID,23.1662,VALID,122,VALID,0,
2012-05-11, 03:04:04,VALID,1009.44,VALID,0,VALID,104,VALID,0.112112,VALID,23.2264,VALID,122,VALID,0,
2012-05-11, 03:05:04,VALID,1009.47,VALID,0,VALID,104,VALID,0,VALID,23.1874,VALID,122,VALID,0.275391,
2012-05-11, 03:06:04,VALID,1009.51,VALID,0,VALID,104,VALID,0,VALID,23.1857,VALID,122,VALID,0,
2012-05-11, 03:07:04,VALID,1009.49,VALID,0,VALID,104,VALID,0,VALID,23.1679,VALID,122,VALID,0.277344,
2012-05-11, 03:08:04,VALID,1009.5,VALID,0,VALID,104,VALID,0,VALID,23.1485,VALID,122,VALID,0.200781,
2012-05-11, 03:09:04,VALID,1009.55,VALID,0,VALID,104,VALID,0,VALID,23.1485,VALID,122,VALID,0,
2012-05-11, 03:10:04,VALID,1009.55,VALID,0,VALID,104,VALID,0.112112,VALID,23.1679,VALID,122,VALID,0,
2012-05-11, 03:11:04,VALID,1009.55,VALID,0,VALID,104,VALID,0.112112,VALID,23.1874,VALID,122,VALID,0,
2012-05-11, 03:12:04,VALID,1009.54,VALID,0,VALID,104,VALID,0.112112,VALID,23.1485,VALID,122,VALID,0,
2012-05-11, 03:13:04,VALID,1009.54,VALID,0,VALID,104,VALID,0,VALID,23.1679,VALID,122,VALID,0,
2012-05-11, 03:14:04,VALID,1009.53,VALID,0,VALID,104,VALID,0.112112,VALID,23.1467,VALID,122,VALID,0,
2012-05-11, 03:15:04,VALID,1009.5,VALID,0,VALID,104,VALID,0.112112,VALID,23.1679,VALID,122,VALID,0,
2012-05-11, 03:16:04,VALID,1009.51,VALID,0,VALID,104,VALID,0.112112,VALID,23.1874,VALID,122,VALID,0,
2012-05-11, 03:17:04,VALID,1009.48,VALID,0,VALID,104,VALID,0,VALID,23.1679,VALID,122,VALID,0,
2012-05-11, 03:18:04,VALID,1009.47,VALID,0,VALID,104,VALID,0,VALID,23.1679,VALID,122,VALID,0,
2012-05-11, 03:19:04,VALID,1009.45,VALID,0,VALID,104,VALID,0,VALID,23.1467,VALID,122,VALID,0,
2012-05-11, 03:20:04,VALID,1009.43,VALID,0,VALID,104,VALID,0,VALID,23.1679,VALID,122,VALID,0,
2012-05-11, 03:21:04,VALID,1009.4,VALID,0,VALID,104,VALID,0,VALID,23.1485,VALID,122,VALID,0,
2012-05-11, 03:22:04,VALID,1009.42,VALID,0,VALID,104,VALID,0.112112,VALID,23.0883,VALID,122,VALID,0,
2012-05-11, 03:23:04,VALID,1009.4,VALID,0,VALID,104,VALID,0.112112,VALID,23.1095,VALID,122,VALID,0,
2012-05-11, 03:24:04,VALID,1009.43,VALID,0,VALID,104,VALID,0.112112,VALID,23.1095,VALID,122,VALID,0,
2012-05-11, 03:25:04,VALID,1009.44,VALID,0,VALID,104,VALID,0.112112,VALID,23.129,VALID,122,VALID,0,
2012-05-11, 03:26:04,VALID,1009.44,VALID,0,VALID,104,VALID,0,VALID,23.0883,VALID,122,VALID,0,
2012-05-11, 03:27:04,VALID,1009.43,VALID,0,VALID,104,VALID,0.112112,VALID,23.1095,VALID,122,VALID,0,
2012-05-11, 03:28:04,VALID,1009.38,VALID,0,VALID,104,VALID,0,VALID,23.09,VALID,122,VALID,0,
2012-05-11, 03:29:04,VALID,1009.38,VALID,0,VALID,104,VALID,0,VALID,23.09,VALID,122,VALID,0,
2012-05-11, 03:30:04,VALID,1009.37,VALID,0,VALID,104,VALID,0.112112,VALID,23.0688,VALID,122,VALID,0,
2012-05-11, 03:31:04,VALID,1009.34,VALID,0,VALID,104,VALID,0,VALID,23.09,VALID,122,VALID,0,
2012-05-11, 03:32:04,VALID,1009.35,VALID,0,VALID,104,VALID,0,VALID,23.0688,VALID,122,VALID,0,
2012-05-11, 03:33:04,VALID,1009.35,VALID,0,VALID,104,VALID,0.112112,VALID,23.0705,VALID,122,VALID,0.0839844,
2012-05-11, 03:34:04,VALID,1009.37,VALID,0,VALID,104,VALID,0.112112,VALID,23.0493,VALID,122,VALID,0.340625,
2012-05-11, 03:35:04,VALID,1009.38,VALID,0,VALID,104,VALID,0,VALID,23.09,VALID,122,VALID,0.349609,
2012-05-11, 03:36:04,VALID,1009.4,VALID,0,VALID,104,VALID,0,VALID,23.0883,VALID,122,VALID,0.448047,
2012-05-11, 03:37:04,VALID,1009.4,VALID,0,VALID,104,VALID,0,VALID,23.09,VALID,122,VALID,0.380469,
2012-05-11, 03:38:04,VALID,1009.4,VALID,0,VALID,104,VALID,0,VALID,23.0511,VALID,121,VALID,0.407813,
2012-05-11, 03:39:04,VALID,1009.39,VALID,0,VALID,104,VALID,0,VALID,23.0723,VALID,121,VALID,0.219922,
2012-05-11, 03:40:04,VALID,1009.41,VALID,0,VALID,104,VALID,0,VALID,23.0528,VALID,121,VALID,0.182812,
2012-05-11, 03:41:04,VALID,1009.43,VALID,0,VALID,104,VALID,0,VALID,23.0528,VALID,121,VALID,0,
2012-05-11, 03:42:04,VALID,1009.44,VALID,0,VALID,104,VALID,0,VALID,23.0333,VALID,121,VALID,0,
2012-05-11, 03:43:04,VALID,1009.43,VALID,0,VALID,104,VALID,0,VALID,22.9749,VALID,121,VALID,0.166406,
2012-05-11, 03:44:04,VALID,1009.42,VALID,0,VALID,104,VALID,0,VALID,22.9554,VALID,121,VALID,0.435937,
2012-05-11, 03:45:04,VALID,1009.42,VALID,0,VALID,104,VALID,0,VALID,22.9147,VALID,121,VALID,0.444141,
2012-05-11, 03:46:04,VALID,1009.4,VALID,0,VALID,104,VALID,0,VALID,22.9147,VALID,121,VALID,0.474609,
2012-05-11, 03:47:04,VALID,1009.38,VALID,0,VALID,104,VALID,0,VALID,22.8969,VALID,97,VALID,0.640234,
2012-05-11, 03:48:04,VALID,1009.35,VALID,0,VALID,104,VALID,0,VALID,22.9164,VALID,89,VALID,0.432031,
2012-05-11, 03:49:04,VALID,1009.32,VALID,0,VALID,104,VALID,0,VALID,22.9147,VALID,60,VALID,0.63125,
2012-05-11, 03:50:04,VALID,1009.33,VALID,0,VALID,104,VALID,0,VALID,22.9342,VALID,47,VALID,0.836719,
2012-05-11, 03:51:04,VALID,1009.3,VALID,0,VALID,104,VALID,0,VALID,22.9749,VALID,47,VALID,0.486328,
2012-05-11, 03:52:04,VALID,1009.29,VALID,0,VALID,104,VALID,0,VALID,22.9749,VALID,47,VALID,0.328906,
2012-05-11, 03:53:04,VALID,1009.26,VALID,0,VALID,104,VALID,0,VALID,22.9536,VALID,47,VALID,0,
2012-05-11, 03:54:04,VALID,1009.29,VALID,0,VALID,104,VALID,0,VALID,22.9129,VALID,47,VALID,0,
2012-05-11, 03:55:04,VALID,1009.26,VALID,0,VALID,104,VALID,0.112112,VALID,22.9129,VALID,47,VALID,0.358203,
2012-05-11, 03:56:04,VALID,1009.33,VALID,0,VALID,104,VALID,0,VALID,22.9519,VALID,47,VALID,0.530078,
2012-05-11, 03:57:04,VALID,1009.32,VALID,0,VALID,104,VALID,0,VALID,22.9909,VALID,47,VALID,0.250781,